Weather History for Crestview, FL

Change the Weather History Date:

Thursday, April 25, 2013

  Actual Average Record
Temperature  
Mean Temperature 70 °F -  
Max Temperature 80 °F - - ()
Min Temperature 58 °F - - ()
Cooling Degree Days 4    
Growing Degree Days 20 (Base 50)    
Moisture  
Dew Point 57 °F    
Average Humidity 75    
Maximum Humidity 100    
Minimum Humidity 42    
Precipitation  
Precipitation 0.00 in - - ()
Sea Level Pressure  
Sea Level Pressure 30.23 in    
Wind  
Wind Speed 7 mph (North)    
Max Wind Speed 12 mph    
Max Gust Speed -    
Visibility 8 miles    
Events Fog    
T = Trace of Precipitation, MM = Missing Value Source: NWS Daily Summary

Daily Weather History Graph

Daily Weather History Graph

Search for Another Location

Airport:

Trip Planner

Search our weather history database for the weather conditions in past years. The results will help you decide how hot, cold, wet, or windy it might be!

Date:

Astronomy

Apr. 25, 2013 Rise Set
Actual Time 6:07 AM CDT 7:20 PM CDT
Civil Twilight 5:42 AM CDT 7:45 PM CDT
Nautical Twilight 5:12 AM CDT 8:15 PM CDT
Astronomical Twilight 4:41 AM CDT 8:47 PM CDT
Moon 7:31 PM CDT (4/25) 5:50 AM CDT (4/25)
Length of Visible Light 14h 03m
Length of Day
13h 12m
Full, 100% of the Moon is Illuminated
Apr 25
Full
Apr 25
Full
May 2
Last Quarter
May 9
New
May 17
First Quarter

Hourly Weather History & Observations

Time (CDT) Temp. Heat Index Dew Point Humidity Pressure Visibility Wind Dir Wind Speed Gust Speed Precip Events Conditions
1:31 AM 60.8 °F - 60.8 °F 100% 30.13 in 0.2 mi NW 2.3 mph - N/A Fog Fog
3:58 AM 63.1 °F - 63.1 °F 100% 30.16 in 0.5 mi North 8.1 mph - N/A Fog Fog
4:43 AM 62.6 °F - 62.6 °F 100% 30.15 in 1.5 mi North 8.1 mph - N/A   Overcast
4:58 AM 61.7 °F - 61.7 °F 100% 30.17 in 1.2 mi North 6.9 mph - N/A   Overcast
5:23 AM 60.8 °F - 60.8 °F 100% 30.17 in 1.5 mi NNW 9.2 mph - N/A   Overcast
6:26 AM 60.8 °F - 60.8 °F 100% 30.19 in 10.0 mi North 6.9 mph - N/A   Overcast
6:58 AM 60.8 °F - 60.8 °F 100% 30.21 in 10.0 mi NNW 6.9 mph - N/A   Overcast
7:58 AM 60.1 °F - 60.1 °F 100% 30.23 in 10.0 mi North 10.4 mph - N/A   Overcast
8:18 AM 59.0 °F - 59.0 °F 100% 30.22 in 10.0 mi North 8.1 mph - N/A   Overcast
8:48 AM 60.8 °F - 60.8 °F 100% 30.23 in 10.0 mi North 8.1 mph - N/A   Overcast
8:57 AM 60.8 °F - 60.8 °F 100% 30.25 in 10.0 mi North 8.1 mph - N/A   Overcast
9:41 AM 62.6 °F - 62.6 °F 100% 30.26 in 10.0 mi North 10.4 mph - N/A   Overcast
9:55 AM 63.5 °F - 56.8 °F 79% 30.27 in 10.0 mi North 10.4 mph - N/A   Overcast
10:17 AM 64.4 °F - 57.2 °F 77% 30.27 in 10.0 mi NNW 10.4 mph - N/A   Mostly Cloudy
10:46 AM 66.2 °F - 57.2 °F 73% 30.27 in 10.0 mi North 6.9 mph - N/A   Mostly Cloudy
10:55 AM 67.1 °F - 57.4 °F 71% 30.27 in 10.0 mi NNE 6.9 mph - N/A   Mostly Cloudy
11:55 AM 72.9 °F - 59.9 °F 64% 30.26 in 10.0 mi Variable 5.8 mph - N/A   Partly Cloudy
12:55 PM 76.3 °F - 60.6 °F 58% 30.24 in 10.0 mi North 9.2 mph - N/A   Scattered Clouds
1:55 PM 78.3 °F - 60.1 °F 53% 30.24 in 10.0 mi North 11.5 mph - N/A   Mostly Cloudy
2:55 PM 77.7 °F - 58.8 °F 52% 30.22 in 10.0 mi Variable 2.3 mph - N/A   Scattered Clouds
3:57 PM 80.2 °F 80.4 °F 56.1 °F 43% 30.21 in 10.0 mi NW 8.1 mph - N/A   Scattered Clouds
4:55 PM 80.6 °F 80.5 °F 55.4 °F 42% 30.20 in 10.0 mi NNW 10.4 mph - N/A   Partly Cloudy
5:57 PM 78.6 °F - 55.4 °F 45% 30.21 in 10.0 mi NNW 9.2 mph - N/A   Partly Cloudy
6:55 PM 75.0 °F - 54.5 °F 49% 30.22 in 10.0 mi North 9.2 mph - N/A   Partly Cloudy
7:58 PM 69.1 °F - 52.9 °F 56% 30.24 in 10.0 mi North 5.8 mph - N/A   Clear
8:55 PM 63.9 °F - 50.0 °F 61% 30.26 in 10.0 mi North 6.9 mph - N/A   Clear
9:55 PM 62.8 °F - 45.0 °F 52% 30.28 in 10.0 mi North 6.9 mph - N/A   Clear
10:55 PM 60.1 °F - 42.4 °F 52% 30.27 in 10.0 mi NNE 5.8 mph - N/A   Clear
11:55 PM 58.5 °F - 41.9 °F 54% 30.27 in 10.0 mi NNE 5.8 mph - N/A   Clear